Regional Weather Roundup
Issued by NWS

Home | Current Version | Previous Version | Text Only | Print | Product List | Glossary On
Versions: 1 2 3 4 5 6 7 8 9 10 11 12 13 14 15 16 17 18 19 20 21 22 23 24 25 26 27 28 29 30 31 32 33 34 35 36 37 38 39 40 41 42 43 44 45 46 47 48 49 50
000
ASUS45 KABQ 260710
RWRNM
WEATHER ROUNDUP FOR NEW MEXICO
NATIONAL WEATHER SERVICE ALBUQUERQUE NM
100 AM MDT SAT JUL 26 2014

NOTE: "FAIR" MEANS FEW OR NO CLOUDS BELOW 12,000 FEET AGL WITH NO
       SIGNIFICANT WEATHER OR OBSTRUCTIONS TO VISION.

      THIS PRODUCT IS RELEASED AS TWO VERSIONS.  ONE VERSION NEAR
      THE TOP OF THE HOUR CONTAINING PRELIMINARY DATA FROM ALBUQUERQUE
      AND OTHER STATIONS.  A FINAL VERSION WITH ADDITIONAL DATA IS
      ISSUED ABOUT 10 MINUTES AFTER THE HOUR.

NMZ501-503-504-510>518-260800-
NORTHWEST PLATEAU/NORTHCENTRAL MOUNTAINS

CITY           SKY/WX    TMP DP  RH WIND       PRES   REMARKS
FARMINGTON     CLEAR     77  44  30 CALM      30.14R
LOS ALAMOS     PTCLDY    73  45  36 N9        30.31S
SANTA FE       PTCLDY    71  47  42 NE8       30.21R
TAOS           PTCLDY    63  45  51 NE6       30.31S
ANGEL FIRE     FAIR      56  48  74 CALM      30.42F

$$
NMZ402-403-502-505>509-260800-
WESTCENTRAL MOUNTAINS/SOUTHWEST MOUNTAINS

CITY           SKY/WX    TMP DP  RH WIND       PRES   REMARKS
GALLUP         PTCLDY    70  40  33 CALM      30.25R
GRANTS         MOCLDY    71  48  45 W7        30.26S
SILVER CITY    CLEAR     75  50  41 NW13      30.18F

$$
NMZ407-409-411-412-260800-
SOUTHERN DESERTS

CITY           SKY/WX    TMP DP  RH WIND       PRES   REMARKS
LORDSBURG      FAIR      77  54  44 W10       30.11S
DEMING         CLEAR     79  55  43 S6        30.08R
LAS CRUCES     CLEAR     78  38  24 W5        30.09S
HOLLOMAN AFB   CLEAR     83  43  24 N12       30.05S
ALAMOGORDO     CLEAR     84  39  20 S14G22    30.07S
T OR C         CLEAR     81  42  25 W6        30.09F

$$
NMZ519>523-260800-
CENTRAL VALLEYS/CENTRAL HIGHLANDS

CITY           SKY/WX    TMP DP  RH WIND       PRES   REMARKS
ALBUQUERQUE    PTCLDY    82  41  23 S7        30.13S
MORIARTY ARPT  PTSUNNY   63  43  48 CALM      30.22S
CLINES CORNERS PTCLDY    70  40  33 SW13      30.27R
BELEN          FAIR      77  41  28 CALM      30.11S
SOCORRO        FAIR      76  40  27 SE9       30.08S

$$
NMZ524>526-539-540-260800-
SOUTHCENTRAL MOUNTAINS

CITY           SKY/WX    TMP DP  RH WIND       PRES   REMARKS
RUIDOSO        CLEAR     72  45  37 W3        30.30F

$$
NMZ527>531-260800-
NORTHEAST HIGHLANDS/NORTHEAST PLAINS

CITY           SKY/WX    TMP DP  RH WIND       PRES   REMARKS
LAS VEGAS      LGT RAIN  70  49  47 NE6       30.27R
RATON          MOCLDY    71  54  54 E5        30.20S
CLAYTON        MOCLDY    77  50  38 S3        30.11F

$$
NMZ532>537-260800-
EASTCENTRAL PLAINS

CITY           SKY/WX    TMP DP  RH WIND       PRES   REMARKS
TUCUMCARI      CLEAR     84  46  26 S20G26    30.01S
CANNON AFB     CLEAR     71  49  45 S6        30.10R
CLOVIS AIRPORT NOT AVBL

$$
NMZ028-029-538-260800-
SOUTHEAST PLAINS

CITY           SKY/WX    TMP DP  RH WIND       PRES   REMARKS
ROSWELL        CLEAR     77  43  29 S9        30.04S
ARTESIA        CLEAR     81  48  32 S16       30.04S
CARLSBAD       CLEAR     82  49  31 S12       30.03R
HOBBS          CLEAR     77  54  44 S12       30.08R


$$



USA.gov is the U.S. government's official web portal to all federal, state and local government web resources and services.